STARLINK-32165

Last updated on Fri Sep 20 2024 00:02:03 GMT+0000 (Coordinated Universal Time)

1 60599U 24150S 24263.37235689 .00035072 00000+0 88276-3 0 9991 2 60599 53.1587 280.6605 0001266 89.0157 271.0993 15.39619471 5891
UTC large
Height (km)
Speed (km/s)
/
Latitude / Longitude
Inclination (degrees)
Orbital Period (minutes)
Azimuth
Elevation
Range (km)
Doppler Factor

Next 0 passes for location: London (51.5072 / 0.1276)

Sorry there are no passes over London.